| time (UTC) | temp F | wind direction | speed knots | gust knots | rain 1hr in | rain 24hr in | rain mn in | humidity % | barometer mb |
| 20260504081521 | 52 | 188 | 0.0 | 7.8 | 0.00 | 0.00 | 0.00 | 62 | 1016.1 |
| 20260504050020 | 47 | 312 | 0.0 | 0.0 | 0.00 | 0.00 | 0.00 | 63 | 1016.5 |
| 20260504044522 | 47 | 312 | 0.0 | 0.0 | 0.00 | 0.00 | 0.00 | 63 | 1016.5 |
| 20260504043006 | 47 | 312 | 0.0 | 0.0 | 0.00 | 0.00 | 0.00 | 62 | 1016.4 |
| 20260504041511 | 47 | 312 | 0.0 | 0.0 | 0.00 | 0.00 | 0.00 | 62 | 1016.6 |
| 20260504040019 | 47 | 312 | 0.0 | 0.0 | 0.00 | 0.00 | 0.00 | 62 | 1016.5 |
| 20260504034535 | 46 | 312 | 0.0 | 0.0 | 0.00 | 0.00 | 0.00 | 63 | 1016.3 |
| 20260504033030 | 45 | 312 | 0.0 | 0.0 | 0.00 | 0.00 | 0.00 | 66 | 1016.1 |
| 20260504031509 | 44 | 312 | 0.0 | 0.0 | 0.00 | 0.00 | 0.00 | 67 | 1016.1 |
| 20260504030015 | 44 | 312 | 0.0 | 0.0 | 0.00 | 0.00 | 0.00 | 67 | 1015.9 |
| 20260504024523 | 45 | 312 | 0.0 | 0.0 | 0.00 | 0.00 | 0.00 | 65 | 1015.9 |
| 20260504023024 | 45 | 312 | 0.0 | 0.0 | 0.00 | 0.00 | 0.00 | 63 | 1016.0 |
| 20260504021524 | 46 | 312 | 0.0 | 0.0 | 0.00 | 0.00 | 0.00 | 63 | 1016.0 |
| 20260504020012 | 47 | 312 | 0.0 | 0.0 | 0.00 | 0.00 | 0.00 | 62 | 1015.9 |
| 20260504014519 | 48 | 312 | 0.0 | 0.0 | 0.00 | 0.00 | 0.00 | 60 | 1015.9 |
| 20260504013005 | 49 | 312 | 0.0 | 0.0 | 0.00 | 0.00 | 0.00 | 57 | 1015.9 |
| 20260504011509 | 50 | 312 | 0.0 | 0.0 | 0.00 | 0.00 | 0.00 | 55 | 1015.7 |
| 20260504010009 | 51 | 312 | 0.0 | 0.0 | 0.00 | 0.00 | 0.00 | 52 | 1015.6 |
| 20260504004517 | 52 | 312 | 0.0 | 0.0 | 0.00 | 0.00 | 0.00 | 49 | 1015.6 |
| 20260504003004 | 55 | 312 | 0.0 | 0.0 | 0.00 | 0.00 | 0.00 | 44 | 1015.4 |
| 20260504001504 | 56 | 312 | 0.0 | 0.0 | 0.00 | 0.00 | 0.00 | 41 | 1015.2 |
| 20260504000008 | 58 | 312 | 0.0 | 0.0 | 0.00 | 0.00 | 0.00 | 38 | 1015.0 |
| 20260503234511 | 60 | 312 | 0.0 | 0.0 | 0.00 | 0.00 | 0.00 | 35 | 1014.9 |
| 20260503233016 | 61 | 312 | 0.0 | 3.5 | 0.00 | 0.00 | 0.00 | 33 | 1014.6 |
| 20260503231504 | 61 | 321 | 0.0 | 4.3 | 0.00 | 0.00 | 0.00 | 31 | 1014.6 |
| 20260503230006 | 62 | 303 | 4.3 | 8.7 | 0.00 | 0.00 | 0.00 | 30 | 1014.6 |
| 20260503224508 | 62 | 295 | 0.0 | 7.8 | 0.00 | 0.00 | 0.00 | 31 | 1014.7 |
| 20260503223022 | 62 | 348 | 3.5 | 9.6 | 0.00 | 0.00 | 0.00 | 30 | 1014.7 |
| 20260503221518 | 62 | 258 | 2.6 | 8.7 | 0.00 | 0.00 | 0.00 | 31 | 1014.7 |
| 20260503220029 | 62 | 338 | 6.1 | 10.4 | 0.00 | 0.00 | 0.00 | 30 | 1014.7 |
| 20260503214507 | 62 | 281 | 1.7 | 8.7 | 0.00 | 0.00 | 0.00 | 31 | 1014.8 |
| 20260503213009 | 62 | 277 | 3.5 | 9.6 | 0.00 | 0.00 | 0.00 | 31 | 1014.7 |
| 20260503211521 | 62 | 215 | 3.5 | 9.6 | 0.00 | 0.00 | 0.00 | 30 | 1014.7 |
| 20260503210020 | 62 | 325 | 4.3 | 10.4 | 0.00 | 0.00 | 0.00 | 32 | 1014.7 |
| 20260503204526 | 61 | 303 | 4.3 | 12.2 | 0.00 | 0.00 | 0.00 | 32 | 1014.9 |
| 20260503203020 | 61 | 306 | 1.7 | 9.6 | 0.00 | 0.00 | 0.00 | 34 | 1014.9 |
| 20260503201514 | 60 | 301 | 2.6 | 9.6 | 0.00 | 0.00 | 0.00 | 34 | 1015.1 |
| 20260503200020 | 60 | 273 | 1.7 | 11.3 | 0.00 | 0.00 | 0.00 | 34 | 1015.4 |
| 20260503194524 | 60 | 311 | 6.1 | 12.2 | 0.00 | 0.00 | 0.00 | 34 | 1015.5 |
| 20260503193024 | 60 | 239 | 7.0 | 13.0 | 0.00 | 0.00 | 0.00 | 34 | 1015.8 |
| 20260503191513 | 59 | 288 | 5.2 | 10.4 | 0.00 | 0.00 | 0.00 | 35 | 1016.0 |
| 20260503190018 | 58 | 263 | 4.3 | 13.9 | 0.00 | 0.00 | 0.00 | 36 | 1016.1 |
| 20260503184530 | 58 | 271 | 5.2 | 12.2 | 0.00 | 0.00 | 0.00 | 36 | 1016.4 |
| 20260503183026 | 58 | 212 | 2.6 | 14.8 | 0.00 | 0.00 | 0.00 | 38 | 1016.4 |
| 20260503181508 | 57 | 238 | 6.1 | 16.5 | 0.00 | 0.00 | 0.00 | 37 | 1016.5 |
| 20260503180025 | 57 | 264 | 5.2 | 11.3 | 0.00 | 0.00 | 0.00 | 36 | 1016.6 |
| 20260503174538 | 56 | 360 | 7.0 | 13.9 | 0.00 | 0.00 | 0.00 | 37 | 1016.7 |
| 20260503173023 | 56 | 325 | 3.5 | 13.9 | 0.00 | 0.00 | 0.00 | 40 | 1016.5 |
| 20260503171530 | 56 | 283 | 4.3 | 12.2 | 0.00 | 0.00 | 0.00 | 38 | 1016.7 |